Weather in Kostanai

Kazakhstan     53°12′52″N   63°37′55″E
temp.,
°C
wind,
m/s
gust,
m/s
humid.,
%
clouds,
%
prec.,
mm/h
press.,
hPa
HPBL,
m
24 january, sun
sun2400:00−30sse129278 0.0 104019
03:00−28sse239194 0.0 104094
06:00−26s359199 0.0 1040156
09:00−24sse4695100 0.1 1039229
12:00−22sse5797100 0.3 1039252
15:00−19sse5896100 0.2 1037283
18:00−16s61094100 0.4 1036384
21:00−14s61295100 0.5 1035430
25 january, mon
mon2500:00−13ssw61293100 0.9 1033368
03:00−11ssw6109498 0.4 1031316
06:00−9ssw479596 0.6 1030203
09:00−6wsw3696100 0.0 1029112
12:000w499699 0.4 1031368
15:00+1wsw4610092 0.0 1031192
18:000w349391 0.0 1032147
21:00−4w449188 0.0 103290
26 january, tue
tue2600:00−5wsw349254 0.0 103350
03:00−6wsw449120 0.0 103463
06:00−7wsw479337 0.0 1034125
09:00−7wsw499776 0.0 1034168
12:00−3wsw599188 0.0 1035522
15:00−4wsw4109295 0.0 1034358
18:00−6sw479471 0.0 1034139
21:00−8sw479450 0.0 1035135
27 january, wed
wed2700:00−9sw479335 0.0 1034116
03:00−8sw499471 0.0 1034154
06:00−8sw499551 0.0 1034162
09:00−8sw499786 0.0 1034149
12:00−3wsw689893 0.0 1034358
15:00−2wsw6995100 0.0 1034430
18:00−2sw5894100 0.1 1033415
21:00−5sw51095100 0.0 1034271
28 january, thu
thu2800:00−3sw6994100 0.0 1034363
03:00−5sw5119498 0.0 1034331
06:00−7sw4109474 0.0 1034221
09:00−8sw41096100 0.0 1034216
12:00−4sw699499 0.1 1034387
15:00−6ssw5993100 0.0 1034288
18:00−7ssw4897100 0.0 1034235
21:00−7ssw4894100 0.0 1034176